OK1TBF-15 Weather Reports


time (UTC)temp
F
wind
direction
speed
knots
gust
knots
rain 1hr
in
rain 24hr
in
rain mn
in
humidity
%
barometer
mb
20260505210617 61 0.0 0.0 0.00 0.00 0.00 47 1005.7
20260505205617 61 0.0 0.0 0.00 0.00 0.00 47 1005.8
20260505204617 61 0.0 0.0 0.00 0.00 0.00 48 1006.0
20260505203617 62 0.0 0.0 0.00 0.00 0.00 46 1005.9
20260505202617 62 0.0 0.0 0.00 0.00 0.00 46 1005.9
20260505201617 63 0.0 0.0 0.00 0.00 0.00 44 1005.8
20260505200617 63 0.0 0.0 0.00 0.00 0.00 44 1005.7
20260505195617 64 0.0 0.0 0.00 0.00 0.00 43 1005.7
20260505194617 64 0.0 0.0 0.00 0.00 0.00 43 1005.6
20260505193617 64 0.0 0.0 0.00 0.00 0.00 42 1005.4
20260505192617 65 0.0 0.0 0.00 0.00 0.00 41 1005.3
20260505191617 65 0.0 0.0 0.00 0.00 0.00 41 1005.5
20260505190617 66 0.0 0.0 0.00 0.00 0.00 39 1005.4
20260505185617 66 0.0 0.0 0.00 0.00 0.00 37 1005.3
20260505184617 65 0.0 0.0 0.00 0.00 0.00 36 1005.3
20260505183617 65 0.0 0.0 0.00 0.00 0.00 32 1005.2
20260505182617 65 0.0 0.0 0.00 0.00 0.00 33 1005.2
20260505181617 64 0.0 0.0 0.00 0.00 0.00 33 1005.2
20260505180617 65 0.0 0.0 0.00 0.00 0.00 34 1005.2
20260505175617 65 0.0 0.0 0.00 0.00 0.00 36 1005.2
20260505174617 67 0.0 0.0 0.00 0.00 0.00 33 1005.3
20260505173617 67 0.0 0.0 0.00 0.00 0.00 28 1005.4
20260505172617 68 0.0 0.0 0.00 0.00 0.00 30 1005.4
20260505171617 68 0.0 0.0 0.00 0.00 0.00 29 1005.5
20260505170617 68 0.0 0.0 0.00 0.00 0.00 29 1005.5
20260505165617 69 0.0 0.0 0.00 0.00 0.00 29 1005.6
20260505164617 70 0.0 0.0 0.00 0.00 0.00 27 1005.6
20260505163621 71 0.0 0.0 0.00 0.00 0.00 26 1005.6
20260505162616 71 0.0 0.0 0.00 0.00 0.00 26 1005.7
20260505161615 72 0.0 0.0 0.00 0.00 0.00 23 1005.8
20260505160616 73 0.0 0.0 0.00 0.00 0.00 29 1005.8
20260505152615 73 0.0 0.0 0.00 0.00 0.00 30 1005.8
20260505151616 73 0.0 0.0 0.00 0.00 0.00 31 1005.9
20260505150615 73 0.0 0.0 0.00 0.00 0.00 33 1005.9
20260505140616 75 0.0 0.0 0.00 0.00 0.00 34 1006.5
20260505124615 73 0.0 0.0 0.00 0.00 0.00 37 1007.3
20260505123615 73 0.0 0.0 0.00 0.00 0.00 38 1007.3
20260505121615 72 0.0 0.0 0.00 0.00 0.00 34 1007.6
20260505120615 72 0.0 0.0 0.00 0.00 0.00 34 1007.7
20260505114615 73 0.0 0.0 0.00 0.00 0.00 35 1007.8
20260505113615 73 0.0 0.0 0.00 0.00 0.00 36 1007.7
20260505112615 73 0.0 0.0 0.00 0.00 0.00 36 1007.8
20260505110615 72 0.0 0.0 0.00 0.00 0.00 36 1007.9
20260505101615 69 0.0 0.0 0.00 0.00 0.00 38 1008.2
20260505100615 69 0.0 0.0 0.00 0.00 0.00 38 1008.3
20260505095615 68 0.0 0.0 0.00 0.00 0.00 40 1008.4
20260505094615 69 0.0 0.0 0.00 0.00 0.00 37 1008.5
20260505093615 67 0.0 0.0 0.00 0.00 0.00 38 1008.7
20260505091615 65 0.0 0.0 0.00 0.00 0.00 38 1008.8
20260505090615 66 0.0 0.0 0.00 0.00 0.00 38 1009.0
20260505084615 65 0.0 0.0 0.00 0.00 0.00 38 1009.0
20260505083615 64 0.0 0.0 0.00 0.00 0.00 39 1009.0
20260505082615 63 0.0 0.0 0.00 0.00 0.00 39 1009.1
20260505081615 63 0.0 0.0 0.00 0.00 0.00 39 1009.3
20260505080615 62 0.0 0.0 0.00 0.00 0.00 39 1009.5
20260505075615 62 0.0 0.0 0.00 0.00 0.00 41 1009.6
20260505074615 60 0.0 0.0 0.00 0.00 0.00 44 1009.7
20260505073615 59 0.0 0.0 0.00 0.00 0.00 43 1009.8
20260505072615 59 0.0 0.0 0.00 0.00 0.00 41 1009.7
20260505071615 60 0.0 0.0 0.00 0.00 0.00 40 1009.7
20260505070615 61 0.0 0.0 0.00 0.00 0.00 39 1009.6
20260505065615 60 0.0 0.0 0.00 0.00 0.00 40 1009.5
20260505064615 60 0.0 0.0 0.00 0.00 0.00 40 1009.4
20260505063615 60 0.0 0.0 0.00 0.00 0.00 40 1009.4
20260505062615 59 0.0 0.0 0.00 0.00 0.00 40 1009.4
20260505061615 59 0.0 0.0 0.00 0.00 0.00 40 1009.3
20260505060615 58 0.0 0.0 0.00 0.00 0.00 41 1009.3
20260505055615 58 0.0 0.0 0.00 0.00 0.00 41 1009.3
20260505054615 58 0.0 0.0 0.00 0.00 0.00 40 1009.4
20260505053615 59 0.0 0.0 0.00 0.00 0.00 40 1009.3
20260505052615 58 0.0 0.0 0.00 0.00 0.00 42 1009.3
20260505051615 57 0.0 0.0 0.00 0.00 0.00 41 1009.3
20260505050615 58 0.0 0.0 0.00 0.00 0.00 40 1009.4